FIN2PD EFOU-EFHK

Flight info

Callsign FIN2PD
Flight time 0h 49m
Altitude 35000
Route MIKNU Y86 LUSEP
Aircraft A320/M-SDE3FGHIRWY/LB1

Departure

Time 2026-05-07 13:05
Airport Oulu Airport (EFOU)

Arrival

Time 2026-05-07 13:55
Airport Helsinki Vantaa Airport (EFHK)
Time Latitude Longitude Altitude Speed Heading
2026-05-07 12:48 64.92822 25.37275 44 ft 0 kts 62°
2026-05-07 13:00 64.92821 25.37270 44 ft 3 kts 62°
2026-05-07 13:00 64.92811 25.37216 39 ft 4 kts 70°
2026-05-07 13:00 64.92803 25.37159 42 ft 4 kts 79°
2026-05-07 13:00 64.92800 25.37099 44 ft 4 kts 92°
2026-05-07 13:01 64.92804 25.37041 44 ft 4 kts 117°
2026-05-07 13:01 64.92807 25.37030 43 ft 0 kts 121°
2026-05-07 13:03 64.92802 25.37049 44 ft 5 kts 121°
2026-05-07 13:03 64.92770 25.37173 44 ft 13 kts 121°
2026-05-07 13:03 64.92711 25.37404 44 ft 19 kts 121°
2026-05-07 13:03 64.92645 25.37664 42 ft 18 kts 121°
2026-05-07 13:04 64.92579 25.37908 44 ft 17 kts 135°
2026-05-07 13:04 64.92492 25.37859 42 ft 14 kts 240°
2026-05-07 13:04 64.92465 25.37625 43 ft 13 kts 274°
2026-05-07 13:04 64.92476 25.37572 44 ft 0 kts 299°
2026-05-07 13:05 64.92485 25.37534 42 ft 12 kts 299°
2026-05-07 13:05 64.92670 25.36801 42 ft 90 kts 300°
2026-05-07 13:05 64.93095 25.35126 163 ft 135 kts 300°
2026-05-07 13:05 64.93587 25.33240 880 ft 139 kts 298°
2026-05-07 13:06 64.94113 25.31214 1580 ft 155 kts 297°
2026-05-07 13:06 64.94700 25.28836 2132 ft 180 kts 297°
2026-05-07 13:06 64.95351 25.26211 2967 ft 190 kts 300°
2026-05-07 13:06 64.96028 25.23500 4013 ft 192 kts 290°
2026-05-07 13:07 64.96111 25.20391 4840 ft 198 kts 250°
2026-05-07 13:07 64.95220 25.17745 5305 ft 226 kts 217°
2026-05-07 13:07 64.93770 25.15810 5859 ft 252 kts 207°
2026-05-07 13:07 64.92151 25.14084 6841 ft 256 kts 206°
2026-05-07 13:08 64.90509 25.12486 7871 ft 262 kts 195°
2026-05-07 13:08 64.88664 25.12189 8908 ft 269 kts 176°
2026-05-07 13:08 64.86841 25.13217 9938 ft 275 kts 165°
2026-05-07 13:08 64.84977 25.14600 10651 ft 290 kts 165°
2026-05-07 13:09 64.82968 25.16075 11018 ft 314 kts 164°
2026-05-07 13:09 64.80834 25.17632 11483 ft 331 kts 165°
2026-05-07 13:09 64.78598 25.19258 12268 ft 338 kts 164°
2026-05-07 13:09 64.76334 25.20903 13155 ft 341 kts 164°
2026-05-07 13:10 64.74049 25.22559 14001 ft 345 kts 164°
2026-05-07 13:10 64.71761 25.24214 14750 ft 349 kts 165°
2026-05-07 13:10 64.69418 25.25901 15498 ft 353 kts 165°
2026-05-07 13:10 64.67052 25.27603 16256 ft 357 kts 165°
2026-05-07 13:11 64.64661 25.29320 16994 ft 361 kts 165°
2026-05-07 13:11 64.62240 25.31054 17740 ft 365 kts 165°
2026-05-07 13:11 64.59828 25.32776 18440 ft 369 kts 165°
2026-05-07 13:11 64.57357 25.34535 19078 ft 373 kts 165°
2026-05-07 13:12 64.54851 25.36311 19735 ft 377 kts 166°
2026-05-07 13:12 64.52330 25.38097 20385 ft 380 kts 166°
2026-05-07 13:12 64.49818 25.39881 20996 ft 383 kts 167°
2026-05-07 13:12 64.47247 25.41706 21632 ft 387 kts 167°
2026-05-07 13:13 64.44628 25.43153 22226 ft 385 kts 176°
2026-05-07 13:13 64.41956 25.43616 22817 ft 383 kts 185°
2026-05-07 13:13 64.39310 25.43461 23409 ft 385 kts 186°
2026-05-07 13:13 64.36620 25.43296 23916 ft 387 kts 187°
2026-05-07 13:14 64.33936 25.43139 24347 ft 390 kts 187°
2026-05-07 13:14 64.31209 25.42984 24757 ft 393 kts 187°
2026-05-07 13:14 64.28454 25.42837 25166 ft 396 kts 187°
2026-05-07 13:14 64.25682 25.42692 25570 ft 399 kts 187°
2026-05-07 13:15 64.22914 25.42545 25963 ft 402 kts 187°
2026-05-07 13:15 64.20096 25.42394 26356 ft 405 kts 187°
2026-05-07 13:15 64.17268 25.42244 26736 ft 408 kts 187°
2026-05-07 13:15 64.14443 25.42092 27110 ft 411 kts 187°
2026-05-07 13:16 64.11560 25.41935 27466 ft 414 kts 187°
2026-05-07 13:16 64.08699 25.41778 27814 ft 416 kts 187°
2026-05-07 13:16 64.05778 25.41615 28157 ft 419 kts 187°
2026-05-07 13:16 64.02848 25.41453 28485 ft 422 kts 187°
2026-05-07 13:17 63.99934 25.41298 28798 ft 424 kts 187°
2026-05-07 13:17 63.96964 25.41144 29101 ft 427 kts 187°
2026-05-07 13:17 63.93972 25.40988 29395 ft 429 kts 187°
2026-05-07 13:17 63.91008 25.40834 29663 ft 431 kts 187°
2026-05-07 13:18 63.87981 25.40681 29924 ft 433 kts 187°
2026-05-07 13:18 63.85004 25.40534 30252 ft 433 kts 187°
2026-05-07 13:18 63.81992 25.40383 30541 ft 432 kts 187°
2026-05-07 13:18 63.78973 25.40236 30815 ft 433 kts 187°
2026-05-07 13:19 63.75996 25.40085 31086 ft 433 kts 187°
2026-05-07 13:19 63.72967 25.39927 31362 ft 434 kts 187°
2026-05-07 13:19 63.69938 25.39766 31630 ft 434 kts 187°
2026-05-07 13:19 63.66944 25.39602 31926 ft 435 kts 187°
2026-05-07 13:20 63.63903 25.39436 32211 ft 435 kts 187°
2026-05-07 13:20 63.60855 25.39275 32499 ft 436 kts 187°
2026-05-07 13:20 63.57858 25.39116 32778 ft 436 kts 187°
2026-05-07 13:20 63.54823 25.38959 33065 ft 437 kts 187°
2026-05-07 13:21 63.51785 25.38805 33370 ft 437 kts 187°
2026-05-07 13:21 63.48729 25.38654 33664 ft 438 kts 187°
2026-05-07 13:21 63.45694 25.38502 33956 ft 438 kts 187°
2026-05-07 13:21 63.42656 25.38347 34216 ft 439 kts 187°
2026-05-07 13:22 63.39586 25.38191 34471 ft 439 kts 187°
2026-05-07 13:22 63.36517 25.38032 34725 ft 439 kts 187°
2026-05-07 13:22 63.33492 25.37868 34957 ft 440 kts 187°
2026-05-07 13:22 63.30410 25.37703 35031 ft 441 kts 187°
2026-05-07 13:23 63.24291 25.37405 35048 ft 441 kts 187°
2026-05-07 13:23 63.18185 25.37117 35052 ft 441 kts 187°
2026-05-07 13:24 63.12037 25.36788 35045 ft 441 kts 187°
2026-05-07 13:24 63.05920 25.36461 35050 ft 441 kts 187°
2026-05-07 13:25 62.99804 25.36153 35042 ft 441 kts 187°
2026-05-07 13:25 62.93683 25.35854 35036 ft 441 kts 187°
2026-05-07 13:26 62.87532 25.35551 35031 ft 441 kts 187°
2026-05-07 13:26 62.81420 25.35255 35034 ft 441 kts 187°
2026-05-07 13:27 62.75295 25.34946 35032 ft 441 kts 187°
2026-05-07 13:27 62.69187 25.34637 35031 ft 441 kts 187°
2026-05-07 13:28 62.63012 25.34322 35033 ft 441 kts 187°
2026-05-07 13:28 62.57006 25.34041 35034 ft 441 kts 187°
2026-05-07 13:29 62.50959 25.33749 35032 ft 441 kts 187°
2026-05-07 13:29 62.44812 25.33433 35027 ft 441 kts 187°
2026-05-07 13:30 62.38692 25.33136 35025 ft 440 kts 187°
2026-05-07 13:30 62.32577 25.32844 35035 ft 440 kts 187°
2026-05-07 13:31 62.26496 25.32553 35038 ft 439 kts 187°
2026-05-07 13:31 62.20364 25.32268 35040 ft 439 kts 187°
2026-05-07 13:32 62.14260 25.31987 35045 ft 439 kts 187°
2026-05-07 13:32 62.08160 25.31699 35049 ft 439 kts 187°
2026-05-07 13:33 62.02075 25.31399 35051 ft 438 kts 188°
2026-05-07 13:33 61.95949 25.31104 35051 ft 438 kts 188°
2026-05-07 13:34 61.86852 25.30682 35050 ft 437 kts 188°
2026-05-07 13:35 61.80743 25.30390 35046 ft 437 kts 188°
2026-05-07 13:35 61.74688 25.30109 35021 ft 436 kts 188°
2026-05-07 13:35 61.71681 25.29972 34788 ft 436 kts 188°
2026-05-07 13:36 61.68642 25.29832 34518 ft 435 kts 188°
2026-05-07 13:36 61.65597 25.29693 33501 ft 438 kts 188°
2026-05-07 13:36 61.62551 25.29555 32435 ft 436 kts 188°
2026-05-07 13:36 61.59544 25.29418 31436 ft 433 kts 189°
2026-05-07 13:37 61.56576 25.29286 30467 ft 427 kts 189°
2026-05-07 13:37 61.53603 25.29151 29132 ft 425 kts 189°
2026-05-07 13:37 61.50638 25.29007 27741 ft 425 kts 189°
2026-05-07 13:37 61.47715 25.28864 26592 ft 423 kts 189°
2026-05-07 13:38 61.44799 25.28730 25781 ft 415 kts 188°
2026-05-07 13:38 61.41921 25.28602 24964 ft 409 kts 188°
2026-05-07 13:38 61.39126 25.28479 24177 ft 404 kts 188°
2026-05-07 13:38 61.36301 25.28350 23355 ft 400 kts 188°
2026-05-07 13:39 61.33521 25.28216 22569 ft 395 kts 188°
2026-05-07 13:39 61.30822 25.28090 21865 ft 390 kts 188°
2026-05-07 13:39 61.28126 25.27968 21183 ft 385 kts 188°
2026-05-07 13:39 61.25515 25.27849 20522 ft 381 kts 188°
2026-05-07 13:40 61.22867 25.27729 19863 ft 378 kts 188°
2026-05-07 13:40 61.20270 25.27612 19259 ft 376 kts 187°
2026-05-07 13:40 61.17653 25.27493 18655 ft 373 kts 187°
2026-05-07 13:40 61.15114 25.27381 18049 ft 371 kts 187°
2026-05-07 13:41 61.12601 25.27271 17498 ft 366 kts 187°
2026-05-07 13:41 61.10058 25.27156 16953 ft 361 kts 187°
2026-05-07 13:41 61.07588 25.27043 16426 ft 357 kts 187°
2026-05-07 13:41 61.05101 25.26927 15891 ft 355 kts 186°
2026-05-07 13:42 61.02636 25.26812 15359 ft 352 kts 186°
2026-05-07 13:42 61.00218 25.26701 14910 ft 349 kts 186°
2026-05-07 13:42 60.97834 25.26605 14771 ft 335 kts 186°
2026-05-07 13:42 60.95541 25.26518 14642 ft 322 kts 186°
2026-05-07 13:43 60.93337 25.26514 14512 ft 311 kts 184°
2026-05-07 13:43 60.91237 25.26629 14369 ft 302 kts 183°
2026-05-07 13:43 60.89151 25.26791 14132 ft 297 kts 183°
2026-05-07 13:43 60.87095 25.26959 13882 ft 295 kts 183°
2026-05-07 13:44 60.85049 25.27117 13600 ft 294 kts 183°
2026-05-07 13:44 60.83006 25.27259 13322 ft 293 kts 183°
2026-05-07 13:44 60.80993 25.27391 13060 ft 292 kts 182°
2026-05-07 13:44 60.78958 25.27526 12784 ft 292 kts 182°
2026-05-07 13:45 60.76929 25.27659 12447 ft 291 kts 182°
2026-05-07 13:45 60.74895 25.27788 11989 ft 293 kts 181°
2026-05-07 13:45 60.72878 25.27915 11560 ft 293 kts 181°
2026-05-07 13:45 60.70860 25.27532 11096 ft 289 kts 197°
2026-05-07 13:46 60.69012 25.26030 10595 ft 287 kts 212°
2026-05-07 13:46 60.67454 25.23534 10149 ft 286 kts 227°
2026-05-07 13:46 60.66202 25.20394 9531 ft 291 kts 233°
2026-05-07 13:46 60.64947 25.17126 8989 ft 292 kts 232°
2026-05-07 13:47 60.63688 25.13851 8476 ft 292 kts 232°
2026-05-07 13:47 60.62292 25.10957 7973 ft 292 kts 218°
2026-05-07 13:47 60.60753 25.08276 7483 ft 290 kts 228°
2026-05-07 13:47 60.59427 25.05209 6981 ft 283 kts 231°
2026-05-07 13:48 60.58176 25.02223 6503 ft 270 kts 230°
2026-05-07 13:48 60.56994 24.99397 6006 ft 260 kts 231°
2026-05-07 13:48 60.55842 24.96640 5500 ft 251 kts 230°
2026-05-07 13:48 60.54739 24.94006 5006 ft 244 kts 231°
2026-05-07 13:49 60.53650 24.91391 4500 ft 238 kts 230°
2026-05-07 13:49 60.52582 24.88829 4016 ft 235 kts 230°
2026-05-07 13:49 60.51512 24.86430 3524 ft 232 kts 224°
2026-05-07 13:49 60.50304 24.84310 3079 ft 227 kts 216°
2026-05-07 13:50 60.48926 24.82914 2721 ft 215 kts 196°
2026-05-07 13:50 60.47512 24.82526 2355 ft 200 kts 178°
2026-05-07 13:50 60.46202 24.82988 2080 ft 181 kts 162°
2026-05-07 13:50 60.45130 24.83966 2013 ft 159 kts 154°
2026-05-07 13:51 60.44206 24.84924 1989 ft 142 kts 154°
2026-05-07 13:51 60.43343 24.85818 2038 ft 137 kts 154°
2026-05-07 13:51 60.42522 24.86666 2006 ft 132 kts 155°
2026-05-07 13:51 60.41700 24.87515 2008 ft 132 kts 154°
2026-05-07 13:52 60.40888 24.88359 1956 ft 131 kts 153°
2026-05-07 13:52 60.40083 24.89204 1767 ft 131 kts 153°
2026-05-07 13:52 60.39281 24.90077 1609 ft 130 kts 152°
2026-05-07 13:52 60.38498 24.90919 1478 ft 130 kts 154°
2026-05-07 13:53 60.37673 24.91740 1192 ft 130 kts 155°
2026-05-07 13:53 60.36866 24.92522 1078 ft 128 kts 155°
2026-05-07 13:53 60.36085 24.93314 858 ft 125 kts 154°
2026-05-07 13:53 60.35313 24.94140 704 ft 125 kts 154°
2026-05-07 13:54 60.34538 24.94911 540 ft 123 kts 155°
2026-05-07 13:54 60.33775 24.95685 380 ft 122 kts 153°
2026-05-07 13:54 60.33021 24.96455 210 ft 121 kts 153°
2026-05-07 13:54 60.32345 24.97148 155 ft 91 kts 152°
2026-05-07 13:55 60.31939 24.97565 153 ft 41 kts 153°
2026-05-07 13:55 60.31724 24.97741 153 ft 20 kts 199°
2026-05-07 13:55 60.31660 24.97577 161 ft 11 kts 243°
2026-05-07 13:55 60.31631 24.97454 161 ft 9 kts 250°
2026-05-07 13:56 60.31659 24.97370 161 ft 8 kts 324°
2026-05-07 13:56 60.31734 24.97291 161 ft 13 kts 333°
2026-05-07 13:56 60.31770 24.97204 161 ft 7 kts 245°
2026-05-07 13:56 60.31749 24.97126 161 ft 4 kts 242°
2026-05-07 13:57 60.31747 24.97121 161 ft 0 kts 242°